No particular awareness of the weather is required.    There are no Weather-warnings


Meteo18 Weather Cam more information Meteo18 Weather Cam


Thunder radar more information blitzortung!


Rain radar more information rain snow radar


Visit our other weather sites:

Template documentation
and downloads

And another site



Weather Underground History page Text

Daily Summary for July 12, 2017 Units:  English    Metric   Both
« Previous Day
Next Day »
Daily Weekly Monthly Yearly Custom
  High: Low: Average:
Temperature: TemperatureC °F 16.5 °F 18.8 °F
Dew Point: DewpointC °F 13.5 °F 15.5 °F
Humidity: Humidity % 68 % 81 %
Wind Speed: WindSpeedKMH mph 0.0 mph 9.3 mph
Wind Gust: WindSpeedGustKMH mph - -
Wind:- - WSW
Pressure: PressurehPa in 1014.4 in -
Precipitation: 1.0 in    
Historical Graphs
 
 
Tabular Data for July 12, 2017
Time Temperature Dew Point Pressure Wind Wind Speed Wind Gust Humidity Rainfall Rate (Hourly)
TemperatureC °F DewpointC °F PressurehPa in Calm     Humidity % HourlyPrecipMM in
00:02 18.7 °F 14.0 °F 1015.8 in Calm   9.7 mph 74 % 0.0 in
00:07 18.6 °F 14.1 °F 1015.8 in Calm   8.0 mph 75 % 0.0 in
00:12 18.4 °F 13.9 °F 1015.8 in SW 1.6 mph 4.8 mph 75 % 0.0 in
00:17 18.4 °F 13.9 °F 1015.5 in Calm   1.6 mph 75 % 0.0 in
00:22 18.4 °F 13.9 °F 1015.5 in SW 1.6 mph 1.6 mph 75 % 0.0 in
00:32 18.2 °F 13.9 °F 1015.5 in Calm   3.2 mph 76 % 0.0 in
00:37 18.0 °F 13.7 °F 1015.5 in SW 3.2 mph 4.8 mph 76 % 0.0 in
00:42 17.8 °F 13.7 °F 1015.5 in South 3.2 mph 4.8 mph 77 % 0.0 in
00:52 18.0 °F 13.7 °F 1015.5 in Calm   9.7 mph 76 % 0.0 in
00:57 17.8 °F 13.7 °F 1015.5 in Calm   9.7 mph 77 % 0.0 in
01:02 17.6 °F 13.5 °F 1015.5 in East 1.6 mph 9.7 mph 77 % 0.0 in
01:07 17.4 °F 13.5 °F 1015.5 in SE 1.6 mph 6.4 mph 78 % 0.0 in
01:12 17.3 °F 13.6 °F 1015.5 in Calm   6.4 mph 79 % 0.0 in
01:17 17.3 °F 13.6 °F 1015.5 in Calm   6.4 mph 79 % 0.0 in
01:22 17.3 °F 13.6 °F 1015.5 in Calm   6.4 mph 79 % 0.0 in
01:27 17.2 °F 13.5 °F 1015.5 in Calm   4.8 mph 79 % 0.0 in
01:32 17.2 °F 13.5 °F 1015.5 in Calm   6.4 mph 79 % 0.0 in
01:37 17.1 °F 13.6 °F 1015.5 in Calm   6.4 mph 80 % 0.0 in
01:42 17.0 °F 13.5 °F 1015.5 in Calm   6.4 mph 80 % 0.0 in
01:47 16.8 °F 13.5 °F 1015.5 in Calm   4.8 mph 81 % 0.0 in
01:52 16.7 °F 13.6 °F 1015.5 in SSW 3.2 mph 6.4 mph 82 % 0.0 in
01:57 16.8 °F 13.7 °F 1015.5 in SSW 4.8 mph 6.4 mph 82 % 0.0 in
02:02 16.9 °F 13.8 °F 1015.5 in SW 8.0 mph 11.3 mph 82 % 0.0 in
02:07 17.1 °F 13.8 °F 1015.5 in SW 4.8 mph 11.3 mph 81 % 0.0 in
02:12 17.3 °F 14.0 °F 1015.5 in SSW 8.0 mph 12.9 mph 81 % 0.0 in
02:17 17.4 °F 13.9 °F 1015.5 in SW 9.7 mph 16.1 mph 80 % 0.0 in
02:22 17.6 °F 13.9 °F 1015.5 in SW 11.3 mph 19.3 mph 79 % 0.0 in
02:27 17.7 °F 13.8 °F 1015.5 in WSW 6.4 mph 19.3 mph 78 % 0.0 in
02:32 17.7 °F 13.8 °F 1015.1 in SSW 9.7 mph 19.3 mph 78 % 0.0 in
02:37 17.7 °F 13.8 °F 1015.1 in SW 4.8 mph 17.7 mph 78 % 0.0 in
02:42 17.6 °F 13.7 °F 1015.1 in SW 14.5 mph 17.7 mph 78 % 0.0 in
02:47 17.6 °F 13.7 °F 1015.1 in WSW 14.5 mph 19.3 mph 78 % 0.0 in
02:52 17.6 °F 13.7 °F 1015.1 in SW 16.1 mph 22.5 mph 78 % 0.0 in
02:57 17.6 °F 13.7 °F 1015.1 in SW 14.5 mph 22.5 mph 78 % 0.0 in
03:02 17.7 °F 13.8 °F 1015.1 in SW 8.0 mph 22.5 mph 78 % 0.0 in
03:12 17.6 °F 13.7 °F 1014.8 in SSW 11.3 mph 20.9 mph 78 % 0.0 in
03:17 17.6 °F 13.7 °F 1014.8 in SSW 11.3 mph 20.9 mph 78 % 0.0 in
03:22 17.7 °F 13.8 °F 1014.8 in WSW 8.0 mph 20.9 mph 78 % 0.0 in
03:32 17.7 °F 13.8 °F 1014.8 in WSW 4.8 mph 22.5 mph 78 % 0.0 in
03:37 17.6 °F 13.7 °F 1014.8 in South 4.8 mph 22.5 mph 78 % 0.0 in
03:42 17.6 °F 13.7 °F 1014.8 in SW 8.0 mph 20.9 mph 78 % 0.0 in
03:52 17.6 °F 13.7 °F 1014.8 in SW 12.9 mph 17.7 mph 78 % 0.0 in
03:57 17.6 °F 13.9 °F 1014.4 in SW 12.9 mph 17.7 mph 79 % 0.0 in
04:02 17.5 °F 13.8 °F 1014.4 in SW 12.9 mph 17.7 mph 79 % 0.0 in
04:07 17.5 °F 14.0 °F 1014.4 in SW 12.9 mph 20.9 mph 80 % 0.0 in
04:12 17.4 °F 13.9 °F 1014.4 in SW 12.9 mph 20.9 mph 80 % 0.0 in
04:17 17.4 °F 13.9 °F 1014.4 in WSW 6.4 mph 22.5 mph 80 % 0.0 in
04:22 17.4 °F 14.1 °F 1014.4 in SW 17.7 mph 22.5 mph 81 % 0.0 in
04:32 17.3 °F 14.0 °F 1014.4 in SW 22.5 mph 22.5 mph 81 % 0.0 in
04:37 17.4 °F 14.1 °F 1014.4 in West 8.0 mph 22.5 mph 81 % 0.0 in
04:42 17.3 °F 14.2 °F 1014.4 in SW 9.7 mph 22.5 mph 82 % 0.0 in
04:47 17.3 °F 14.2 °F 1014.4 in West 4.8 mph 22.5 mph 82 % 0.0 in
04:52 17.3 °F 14.2 °F 1014.4 in SW 9.7 mph 22.5 mph 82 % 0.0 in
04:57 17.3 °F 14.4 °F 1014.4 in SSW 8.0 mph 20.9 mph 83 % 0.0 in
05:02 17.2 °F 14.3 °F 1014.4 in SW 9.7 mph 20.9 mph 83 % 0.0 in
05:12 17.3 °F 14.4 °F 1014.4 in SW 11.3 mph 17.7 mph 83 % 0.0 in
05:17 17.2 °F 14.5 °F 1014.4 in SW 12.9 mph 19.3 mph 84 % 0.0 in
05:22 17.1 °F 14.4 °F 1014.4 in SW 12.9 mph 19.3 mph 84 % 0.0 in
05:27 17.1 °F 14.6 °F 1014.4 in SW 9.7 mph 17.7 mph 85 % 0.0 in
05:32 17.1 °F 14.6 °F 1014.4 in South 9.7 mph 17.7 mph 85 % 0.0 in
05:42 17.2 °F 14.5 °F 1014.4 in SW 9.7 mph 16.1 mph 84 % 0.0 in
05:52 17.2 °F 14.5 °F 1014.4 in SW 8.0 mph 17.7 mph 84 % 0.0 in
05:57 17.2 °F 14.5 °F 1014.4 in SSW 9.7 mph 17.7 mph 84 % 0.0 in
06:02 17.1 °F 14.4 °F 1014.4 in SW 9.7 mph 17.7 mph 84 % 0.0 in
06:12 17.2 °F 14.5 °F 1014.4 in SW 8.0 mph 24.1 mph 84 % 0.0 in
06:17 17.3 °F 14.6 °F 1014.8 in SW 6.4 mph 24.1 mph 84 % 0.0 in
06:22 17.3 °F 14.6 °F 1014.4 in SW 11.3 mph 17.7 mph 84 % 0.0 in
06:27 17.3 °F 14.4 °F 1014.8 in SW 11.3 mph 17.7 mph 83 % 0.0 in
06:32 17.4 °F 14.5 °F 1014.8 in SW 6.4 mph 24.1 mph 83 % 0.0 in
06:42 17.4 °F 14.5 °F 1014.8 in SW 9.7 mph 24.1 mph 83 % 0.0 in
06:47 17.4 °F 14.5 °F 1014.8 in WSW 16.1 mph 24.1 mph 83 % 0.0 in
06:52 17.3 °F 14.6 °F 1014.8 in West 9.7 mph 25.7 mph 84 % 0.0 in
06:57 17.1 °F 14.6 °F 1014.8 in WSW 6.4 mph 25.7 mph 85 % 0.0 in
07:02 17.0 °F 14.6 °F 1014.8 in WSW 4.8 mph 25.7 mph 86 % 0.0 in
07:12 16.9 °F 14.7 °F 1015.1 in SW 11.3 mph 19.3 mph 87 % 0.0 in
07:17 16.8 °F 14.6 °F 1015.1 in SW 17.7 mph 17.7 mph 87 % 0.0 in
07:22 16.8 °F 14.8 °F 1015.1 in WSW 8.0 mph 16.1 mph 88 % 0.0 in
07:32 16.5 °F 14.9 °F 1015.1 in WSW 9.7 mph 24.1 mph 90 % 0.0 in
07:37 16.5 °F 14.9 °F 1015.1 in SW 8.0 mph 24.1 mph 90 % 0.0 in
07:42 16.6 °F 15.0 °F 1014.8 in SW 12.9 mph 24.1 mph 90 % 0.0 in
07:47 16.7 °F 15.1 °F 1014.8 in WSW 11.3 mph 19.3 mph 90 % 0.0 in
07:52 16.9 °F 15.2 °F 1014.8 in SW 8.0 mph 19.3 mph 90 % 0.0 in
08:02 17.1 °F 15.1 °F 1015.1 in WSW 9.7 mph 19.3 mph 88 % 0.0 in
08:07 17.2 °F 15.2 °F 1015.1 in SW 14.5 mph 20.9 mph 88 % 0.0 in
08:12 17.2 °F 15.2 °F 1015.1 in SW 12.9 mph 20.9 mph 88 % 0.0 in
08:17 17.2 °F 15.0 °F 1015.1 in SW 6.4 mph 20.9 mph 87 % 0.0 in
08:22 17.3 °F 15.3 °F 1015.1 in SW 12.9 mph 24.1 mph 88 % 0.0 in
08:32 17.4 °F 15.2 °F 1015.1 in SW 14.5 mph 24.1 mph 87 % 0.0 in
08:37 17.4 °F 15.2 °F 1015.1 in SW 12.9 mph 25.7 mph 87 % 0.0 in
08:42 17.6 °F 15.4 °F 1015.1 in West 9.7 mph 25.7 mph 87 % 0.0 in
08:47 17.7 °F 15.3 °F 1015.1 in WSW 20.9 mph 25.7 mph 86 % 0.0 in
08:52 17.8 °F 15.4 °F 1015.1 in WSW 12.9 mph 22.5 mph 86 % 0.0 in
09:02 17.9 °F 15.5 °F 1015.5 in SW 12.9 mph 25.7 mph 86 % 0.0 in
09:07 17.9 °F 15.5 °F 1015.5 in WSW 11.3 mph 24.1 mph 86 % 0.0 in
09:12 17.8 °F 15.6 °F 1015.5 in SW 12.9 mph 24.1 mph 87 % 0.0 in
09:17 17.6 °F 15.8 °F 1015.8 in WSW 12.9 mph 22.5 mph 89 % 0.3 in
09:22 17.3 °F 15.8 °F 1015.8 in SW 8.0 mph 22.5 mph 91 % 0.3 in
09:32 17.2 °F 16.1 °F 1015.8 in SW 16.1 mph 22.5 mph 93 % 0.5 in
09:42 17.2 °F 16.1 °F 1015.5 in WSW 3.2 mph 22.5 mph 93 % 0.5 in
09:52 17.4 °F 16.3 °F 1015.5 in SW 11.3 mph 17.7 mph 93 % 0.5 in
09:57 17.6 °F 16.5 °F 1015.5 in WSW 9.7 mph 17.7 mph 93 % 0.5 in
10:02 17.8 °F 16.5 °F 1015.5 in SW 4.8 mph 17.7 mph 92 % 0.5 in
10:12 18.2 °F 16.9 °F 1015.5 in WSW 11.3 mph 16.1 mph 92 % 0.5 in
10:17 18.3 °F 16.8 °F 1015.5 in SW 16.1 mph 16.1 mph 91 % 0.5 in
10:22 18.6 °F 16.9 °F 1015.5 in SW 20.9 mph 20.9 mph 90 % 0.5 in
10:27 18.6 °F 16.8 °F 1015.5 in SW 17.7 mph 19.3 mph 89 % 0.0 in
10:32 18.5 °F 16.8 °F 1015.5 in West 9.7 mph 25.7 mph 90 % 0.0 in
10:37 18.4 °F 16.9 °F 1015.5 in SW 12.9 mph 25.7 mph 91 % 0.3 in
10:42 18.3 °F 16.8 °F 1015.5 in SW 14.5 mph 25.7 mph 91 % 0.3 in
10:47 18.2 °F 16.7 °F 1015.5 in South 14.5 mph 25.7 mph 91 % 0.3 in
10:52 18.3 °F 16.6 °F 1015.5 in SSW 14.5 mph 25.7 mph 90 % 0.3 in
10:57 18.2 °F 16.7 °F 1015.5 in SW 17.7 mph 25.7 mph 91 % 0.5 in
11:02 18.3 °F 16.6 °F 1015.5 in SW 20.9 mph 25.7 mph 90 % 0.5 in
11:07 18.6 °F 16.9 °F 1015.5 in SSW 12.9 mph 27.4 mph 90 % 0.5 in
11:12 18.7 °F 16.8 °F 1015.5 in West 14.5 mph 33.8 mph 89 % 0.5 in
11:17 18.9 °F 17.2 °F 1015.8 in West 24.1 mph 33.8 mph 90 % 0.5 in
11:22 18.9 °F 17.2 °F 1015.8 in WSW 8.0 mph 33.8 mph 90 % 0.5 in
11:32 19.6 °F 17.7 °F 1015.8 in West 9.7 mph 33.8 mph 89 % 0.5 in
11:37 19.8 °F 17.4 °F 1015.8 in SW 24.1 mph 32.2 mph 86 % 0.3 in
11:42 19.9 °F 17.3 °F 1015.8 in West 11.3 mph 32.2 mph 85 % 0.3 in
11:47 19.8 °F 16.8 °F 1015.8 in West 11.3 mph 30.6 mph 83 % 0.0 in
11:57 20.2 °F 17.2 °F 1015.8 in West 24.1 mph 30.6 mph 83 % 0.0 in
12:02 20.6 °F 17.2 °F 1015.8 in SW 17.7 mph 29.0 mph 81 % 0.0 in
12:07 20.7 °F 17.1 °F 1015.8 in WSW 14.5 mph 33.8 mph 80 % 0.0 in
12:12 20.2 °F 16.8 °F 1016.1 in SW 14.5 mph 33.8 mph 81 % 0.0 in
12:17 20.3 °F 16.9 °F 1016.1 in WSW 17.7 mph 29.0 mph 81 % 0.0 in
12:22 20.3 °F 16.9 °F 1016.1 in SSE 6.4 mph 30.6 mph 81 % 0.0 in
12:27 20.2 °F 16.8 °F 1016.1 in SW 8.0 mph 30.6 mph 81 % 0.0 in
12:32 20.4 °F 17.0 °F 1016.1 in SW 8.0 mph 30.6 mph 81 % 0.0 in
12:37 21.2 °F 17.6 °F 1016.1 in WNW 14.5 mph 30.6 mph 80 % 0.0 in
12:42 21.2 °F 17.4 °F 1016.1 in WSW 11.3 mph 30.6 mph 79 % 0.0 in
12:47 21.1 °F 17.3 °F 1016.1 in WSW 14.5 mph 30.6 mph 79 % 0.0 in
12:52 21.1 °F 17.3 °F 1016.5 in West 14.5 mph 25.7 mph 79 % 0.0 in
12:57 20.9 °F 17.3 °F 1016.5 in WSW 14.5 mph 25.7 mph 80 % 0.0 in
13:02 20.7 °F 16.9 °F 1016.5 in SSW 8.0 mph 29.0 mph 79 % 0.0 in
13:07 20.6 °F 17.2 °F 1016.5 in West 19.3 mph 29.0 mph 81 % 0.0 in
13:12 20.5 °F 17.3 °F 1016.5 in WSW 22.5 mph 29.0 mph 82 % 0.0 in
13:17 20.6 °F 17.8 °F 1016.5 in WSW 9.7 mph 29.0 mph 84 % 0.0 in
13:22 21.0 °F 17.6 °F 1016.5 in SW 16.1 mph 27.4 mph 81 % 0.0 in
13:32 20.6 °F 16.8 °F 1016.8 in SW 17.7 mph 35.4 mph 79 % 0.0 in
13:42 20.8 °F 17.4 °F 1016.8 in NNW 9.7 mph 35.4 mph 81 % 0.0 in
13:52 20.3 °F 17.3 °F 1017.2 in WSW 6.4 mph 25.7 mph 83 % 0.0 in
13:57 20.3 °F 17.7 °F 1017.2 in West 16.1 mph 25.7 mph 85 % 0.0 in
14:02 20.2 °F 17.2 °F 1017.2 in West 9.7 mph 27.4 mph 83 % 0.0 in
14:12 20.3 °F 17.1 °F 1017.2 in WSW 14.5 mph 27.4 mph 82 % 0.0 in
14:17 20.7 °F 17.3 °F 1017.2 in West 12.9 mph 25.7 mph 81 % 0.0 in
14:22 20.9 °F 17.3 °F 1017.2 in West 16.1 mph 25.7 mph 80 % 0.0 in
14:27 21.3 °F 17.5 °F 1017.2 in West 14.5 mph 20.9 mph 79 % 0.0 in
14:32 21.6 °F 17.8 °F 1017.2 in WSW 11.3 mph 25.7 mph 79 % 0.0 in
14:37 21.7 °F 17.5 °F 1017.2 in West 14.5 mph 25.7 mph 77 % 0.0 in
14:42 21.0 °F 16.6 °F 1017.5 in WNW 11.3 mph 29.0 mph 76 % 0.0 in
14:47 20.6 °F 16.6 °F 1017.5 in SW 9.7 mph 29.0 mph 78 % 0.0 in
14:52 20.5 °F 16.7 °F 1017.5 in West 6.4 mph 29.0 mph 79 % 0.0 in
14:57 21.0 °F 16.8 °F 1017.5 in WSW 9.7 mph 27.4 mph 77 % 0.0 in
15:02 21.4 °F 16.4 °F 1017.5 in WSW 24.1 mph 29.0 mph 73 % 0.0 in
15:12 21.8 °F 16.1 °F 1017.8 in WSW 19.3 mph 37.0 mph 70 % 0.0 in
15:17 21.6 °F 16.3 °F 1017.8 in WSW 20.9 mph 41.8 mph 72 % 0.0 in
15:22 21.4 °F 16.1 °F 1017.8 in WSW 16.1 mph 41.8 mph 72 % 0.0 in
15:32 21.5 °F 16.5 °F 1017.8 in West 14.5 mph 27.4 mph 73 % 0.0 in
15:37 21.6 °F 16.1 °F 1018.2 in WNW 12.9 mph 25.7 mph 71 % 0.0 in
15:42 21.5 °F 15.8 °F 1018.2 in WNW 14.5 mph 25.7 mph 70 % 0.0 in
15:47 21.6 °F 15.9 °F 1018.2 in SW 9.7 mph 25.7 mph 70 % 0.0 in
15:52 21.7 °F 15.5 °F 1018.2 in West 6.4 mph 25.7 mph 68 % 0.0 in
15:57 21.7 °F 15.5 °F 1018.5 in West 9.7 mph 25.7 mph 68 % 0.0 in
16:02 21.6 °F 15.7 °F 1018.5 in West 9.7 mph 25.7 mph 69 % 0.0 in
16:12 21.2 °F 15.1 °F 1018.8 in West 11.3 mph 24.1 mph 68 % 0.0 in
16:17 21.2 °F 15.3 °F 1018.8 in WNW 12.9 mph 24.1 mph 69 % 0.0 in
16:22 21.2 °F 15.7 °F 1018.8 in West 19.3 mph 22.5 mph 71 % 0.0 in
16:32 21.2 °F 15.7 °F 1019.2 in WSW 16.1 mph 20.9 mph 71 % 0.0 in
16:42 21.2 °F 15.9 °F 1019.5 in WNW 9.7 mph 20.9 mph 72 % 0.0 in
16:47 20.9 °F 15.9 °F 1019.5 in West 11.3 mph 19.3 mph 73 % 0.0 in
16:57 20.3 °F 15.7 °F 1019.5 in West 8.0 mph 22.5 mph 75 % 0.0 in
17:02 20.4 °F 15.8 °F 1019.9 in WSW 14.5 mph 22.5 mph 75 % 0.0 in
17:12 20.7 °F 15.7 °F 1019.9 in WNW 12.9 mph 17.7 mph 73 % 0.0 in
17:17 20.7 °F 15.7 °F 1019.9 in WNW 16.1 mph 19.3 mph 73 % 0.0 in
17:22 20.8 °F 15.8 °F 1019.9 in West 9.7 mph 20.9 mph 73 % 0.0 in
17:32 20.9 °F 15.7 °F 1019.9 in WNW 4.8 mph 20.9 mph 72 % 0.0 in
17:37 21.0 °F 15.8 °F 1019.9 in WSW 4.8 mph 16.1 mph 72 % 0.0 in
17:42 21.2 °F 15.9 °F 1019.9 in West 9.7 mph 17.7 mph 72 % 0.0 in
17:47 21.1 °F 15.9 °F 1019.9 in WSW 11.3 mph 17.7 mph 72 % 0.0 in
17:52 21.0 °F 16.0 °F 1019.9 in West 9.7 mph 17.7 mph 73 % 0.0 in
18:02 21.0 °F 16.0 °F 1019.9 in West 9.7 mph 20.9 mph 73 % 0.0 in
18:12 21.1 °F 15.9 °F 1019.9 in West 14.5 mph 19.3 mph 72 % 0.0 in
18:17 20.9 °F 15.9 °F 1019.9 in WSW 8.0 mph 19.3 mph 73 % 0.0 in
18:22 20.8 °F 16.0 °F 1019.9 in West 11.3 mph 19.3 mph 74 % 0.0 in
18:32 20.7 °F 15.9 °F 1020.2 in West 11.3 mph 24.1 mph 74 % 0.0 in
18:42 20.2 °F 16.0 °F 1020.2 in WSW 9.7 mph 20.9 mph 77 % 0.0 in
18:52 19.7 °F 16.2 °F 1020.2 in WSW 9.7 mph 22.5 mph 80 % 0.0 in
18:57 19.7 °F 16.2 °F 1020.5 in West 6.4 mph 22.5 mph 80 % 0.0 in
19:02 19.7 °F 16.0 °F 1020.2 in WSW 6.4 mph 17.7 mph 79 % 0.0 in
19:07 19.8 °F 16.2 °F 1020.2 in WSW 6.4 mph 14.5 mph 80 % 0.0 in
19:12 19.8 °F 16.1 °F 1020.2 in SW 9.7 mph 16.1 mph 79 % 0.0 in
19:17 19.9 °F 16.1 °F 1020.5 in WSW 14.5 mph 17.7 mph 79 % 0.0 in
19:22 19.9 °F 16.1 °F 1020.5 in West 11.3 mph 19.3 mph 79 % 0.0 in
19:32 19.9 °F 16.1 °F 1020.5 in WSW 12.9 mph 19.3 mph 79 % 0.0 in
19:37 20.0 °F 16.2 °F 1020.5 in WNW 4.8 mph 17.7 mph 79 % 0.0 in
19:42 20.0 °F 16.0 °F 1020.5 in West 6.4 mph 17.7 mph 78 % 0.0 in
19:52 20.0 °F 16.2 °F 1020.5 in West 12.9 mph 25.7 mph 79 % 0.0 in
19:57 19.9 °F 16.1 °F 1020.5 in West 11.3 mph 25.7 mph 79 % 0.0 in
20:02 19.9 °F 16.1 °F 1020.5 in WNW 9.7 mph 25.7 mph 79 % 0.0 in
20:07 19.8 °F 16.2 °F 1020.9 in WNW 11.3 mph 20.9 mph 80 % 0.0 in
20:12 19.8 °F 16.2 °F 1020.9 in WNW 8.0 mph 19.3 mph 80 % 0.0 in
20:17 19.6 °F 16.2 °F 1020.9 in WNW 6.4 mph 19.3 mph 81 % 0.0 in
20:22 19.5 °F 16.3 °F 1021.2 in WNW 8.0 mph 17.7 mph 82 % 0.0 in
20:27 19.3 °F 16.3 °F 1021.2 in West 9.7 mph 17.7 mph 83 % 0.0 in
20:32 19.2 °F 16.4 °F 1021.2 in WNW 4.8 mph 14.5 mph 84 % 0.0 in
20:37 19.0 °F 16.4 °F 1021.2 in Calm   14.5 mph 85 % 0.0 in
20:42 18.9 °F 16.5 °F 1021.2 in Calm   12.9 mph 86 % 0.0 in
20:47 18.8 °F 16.4 °F 1021.6 in WNW 3.2 mph 9.7 mph 86 % 0.0 in
20:52 18.7 °F 16.3 °F 1021.6 in NW 1.6 mph 9.7 mph 86 % 0.0 in
20:57 18.7 °F 16.5 °F 1021.6 in NW 3.2 mph 9.7 mph 87 % 0.0 in
21:02 18.7 °F 16.3 °F 1021.2 in Calm   9.7 mph 86 % 0.0 in
21:12 18.7 °F 16.3 °F 1021.2 in Calm   9.7 mph 86 % 0.0 in
21:17 18.8 °F 16.4 °F 1021.2 in West 1.6 mph 6.4 mph 86 % 0.0 in
21:22 18.7 °F 16.3 °F 1021.2 in Calm   3.2 mph 86 % 0.0 in
21:32 18.8 °F 16.2 °F 1021.6 in Calm   1.6 mph 85 % 0.0 in
21:37 18.8 °F 16.4 °F 1021.6 in Calm   1.6 mph 86 % 0.0 in
21:42 18.8 °F 16.4 °F 1021.6 in West 1.6 mph 1.6 mph 86 % 0.0 in
21:52 18.7 °F 16.5 °F 1021.6 in Calm   1.6 mph 87 % 0.0 in
21:57 18.6 °F 16.4 °F 1021.6 in Calm   1.6 mph 87 % 0.0 in
22:02 18.5 °F 16.3 °F 1021.6 in Calm   1.6 mph 87 % 0.0 in
22:12 18.5 °F 16.3 °F 1021.9 in Calm   1.6 mph 87 % 0.0 in
22:17 18.5 °F 16.3 °F 1021.9 in SSW 1.6 mph 1.6 mph 87 % 0.0 in
22:22 18.4 °F 16.4 °F 1021.9 in Calm   1.6 mph 88 % 0.0 in
22:32 18.4 °F 16.2 °F 1021.9 in SW 3.2 mph 4.8 mph 87 % 0.0 in
22:37 18.4 °F 16.0 °F 1021.9 in WSW 1.6 mph 4.8 mph 86 % 0.0 in
22:42 18.5 °F 16.1 °F 1021.9 in West 1.6 mph 4.8 mph 86 % 0.0 in
22:47 18.6 °F 16.2 °F 1022.2 in WSW 1.6 mph 4.8 mph 86 % 0.0 in
22:52 18.6 °F 16.2 °F 1022.2 in WSW 1.6 mph 4.8 mph 86 % 0.0 in
23:02 18.4 °F 16.2 °F 1022.2 in WSW 3.2 mph 3.2 mph 87 % 0.0 in
23:12 18.3 °F 16.1 °F 1022.2 in WSW 3.2 mph 4.8 mph 87 % 0.0 in
23:32 18.3 °F 16.3 °F 1022.2 in Calm   4.8 mph 88 % 0.0 in
23:37 18.2 °F 16.2 °F 1022.2 in Calm   3.2 mph 88 % 0.0 in
23:47 18.1 °F 16.3 °F 1022.2 in Calm     89 % 0.0 in
23:52 18.1 °F 16.3 °F 1022.2 in SW 3.2 mph 3.2 mph 89 % 0.0 in
Meteo18
Compliments of Weather Underground - 4 mb

Script developed by  Jim McMurry - jmcmurry@mwt.net Adapted for the template by  Wim van der Kuil - Leuven-Template.eu

You find our weather info also at:

European Weather Network

Weather Underground

Equipment we use:

Weather-station
Davis Vue

Weather-program
Meteobridge

Weather-server
Raspberry PI 2 B+

Provider
1 and 1

Davis Vue

Meteobridge

Raspberry PI 2 B+

1 and 1